Location: Boubers-lès-Hesmond
(50.4728°N, 1.9525°E)
Time: 01:56:01
(UTC+00:00)

Daily predictions for brighter satellites

Satellite Brightness Start Highest point End
(mag) Time Altitude Azimuth Time Altitude Azimuth Time Altitude Azimuth
NOSS 3-1 (C) 4.5 03:34:05 49° NE 03:34:05 49° NE 03:41:50 10° ESE
ACS3 Solar Sail 4.1 03:40:05 10° N 03:40:27 12° N 03:40:27 12° N
SL-16 R/B 3.9 03:46:49 25° NNE 03:47:20 26° NE 03:52:01 10° E
Cosmos 2082 Rocket 3.9 03:49:32 24° SE 03:51:30 29° ESE 03:56:17 10° NE
COSMOS 2455 3.5 03:58:09 53° E 03:58:09 53° E 04:03:09 10° SE
ATLAS 3B R/B 4.1 03:59:03 31° N 03:59:29 31° N 04:06:17 10° ENE
NOSS 3-4 (A) 4.4 04:02:31 36° NNE 04:02:31 36° NNE 04:06:10 10° NE
NOSS 3-4 (C) 4.4 04:02:40 36° NNE 04:02:40 36° NNE 04:06:20 10° NE
Cosmos 1980 Rocket 3.6 04:14:14 27° SSE 04:14:14 27° SSE 04:16:42 10° SSE
Cosmos 2369 4.0 04:16:15 64° ESE 04:16:15 64° ESE 04:21:14 10° SE
Aureole 1 Rocket 4.2 04:20:44 60° NNW 04:22:14 85° ENE 04:29:45 10° SSE
COSMO-SKYMED 1 4.3 04:18:51 10° SE 04:22:23 28° ENE 04:22:49 28° NE
ADEOS Rocket 4.4 04:15:58 10° N 04:20:30 34° NNW 04:20:30 34° NNW
Cosmos 2180 Rocket 4.5 04:23:51 51° N 04:25:36 82° E 04:31:56 10° SSE
Cosmos 1937 Rocket 4.1 04:25:55 49° NE 04:26:25 51° ENE 04:31:23 10° SE
Cosmos 909 Rocket 4.4 04:28:18 57° NNW 04:28:18 57° NNW 04:34:27 10° NE
Cosmos 372 Rocket 4.4 04:33:38 54° SSE 04:33:38 54° SSE 04:37:32 10° SSE
Cosmos 2333 Rocket 3.4 04:33:56 26° N 04:36:30 39° NE 04:41:52 10° ESE
NOSS 3-1 (A) 4.3 04:37:46 36° NNW 04:40:31 56° NE 04:48:45 10° ESE
Cosmos 1606 Rocket 4.0 04:43:12 61° ESE 04:43:12 61° ESE 04:47:08 10° SSE
Cosmos 2360 Rocket 3.7 04:40:11 20° N 04:43:11 31° NE 04:48:09 10° ESE
Cosmos 2142 Rocket 4.3 04:47:06 59° NW 04:48:04 68° W 04:54:13 10° S
Cosmos 540 Rocket 4.3 04:56:48 36° N 04:56:48 36° N 05:00:06 10° NNE
USA 234 3.6 04:49:40 10° ENE 04:55:59 51° N 04:57:47 40° NW
Helios 1A Rocket 3.7 04:53:16 10° SE 04:55:47 40° ESE 04:55:47 40° ESE
SeaSat 1 4.0 04:56:10 10° NNE 04:58:20 22° N 04:58:20 22° N
Cosmos 2219 Rocket 3.8 04:58:08 14° N 05:01:58 28° NE 05:06:48 10° ESE
SL-4 R/B 2.8 05:03:15 36° ENE 05:03:15 36° ENE 05:05:19 10° E
ATLAS 5 CENTAUR R/B 3.4 05:05:56 14° NNE 05:05:56 14° NNE 05:06:36 10° NNE
Cosmos 2322 Rocket 3.1 05:01:43 20° NNW 05:05:23 45° NE 05:10:49 10° SE
Cosmos 1726 Rocket 3.4 05:08:07 51° N 05:09:12 88° E 05:13:28 10° S
Meteor 2-3 Rocket 4.1 05:05:44 10° S 05:11:24 67° E 05:17:03 10° NNE
CZ-4 R/B 3.7 05:10:18 10° NNE 05:14:59 82° ESE 05:19:36 10° SSW
Nadezhda 4 Rocket 3.9 05:10:07 10° SSW 05:16:26 77° W 05:22:45 10° N
NOSS 2-1 (D) 4.1 05:17:46 37° SSW 05:17:46 37° SSW 05:21:23 10° SSE
Cosmos 2237 4.2 05:15:45 43° NW 05:17:28 62° WSW 05:23:03 10° SSE
Cosmos 1428 Rocket 4.4 05:11:19 10° S 05:17:32 88° W 05:23:52 10° N
CZ-2C R/B 4.1 05:14:24 10° N 05:16:11 19° NNW 05:16:11 19° NNW
USA 59 Rocket 0.8 05:20:26 34° SSW 05:20:26 34° SSW 05:24:02 10° SSE
Cosmos 841 Rocket 3.4 05:18:05 10° SSW 05:23:20 86° WNW 05:28:38 10° NNE
COSMOS 2406 3.3 05:18:13 10° SSW 05:23:51 76° ESE 05:29:32 10° NNE
NOSS 2-1 (E) 3.8 05:25:12 42° SW 05:25:12 42° SW 05:29:16 10° SSE
NOSS 3-1 (C) 4.0 05:21:26 32° WNW 05:25:04 64° SW 05:33:42 10° SSE
Cosmos 1833 Rocket 4.0 05:28:01 22° NNW 05:28:01 22° NNW 05:31:43 10° NNE
Cosmos 1892 Rocket 3.5 05:25:58 10° S 05:30:20 86° E 05:34:46 10° N
Cosmos 2195 Rocket 4.4 05:24:35 10° S 05:30:51 87° W 05:37:15 10° N
SL-16 R/B 2.1 05:28:40 25° NNW 05:32:05 80° WSW 05:37:45 10° SSE
Cosmos 2082 Rocket 2.2 05:31:29 20° SW 05:35:16 55° NW 05:40:49 10° NNE
IRS-1D 3.5 05:37:14 10° N 05:42:06 55° WNW 05:47:01 10° SW
COSMOS 2455 3.6 05:41:19 29° W 05:42:50 33° WSW 05:48:06 10° S
Cosmos 1898 Rocket 4.2 05:42:42 31° W 05:43:29 32° WSW 05:48:06 10° SSW
Meteor 2-20 4.4 05:38:53 10° NNW 05:44:58 68° W 05:50:59 10° S
NOSS 2-1 (C) 4.4 05:44:49 26° WSW 05:44:58 26° SW 05:48:46 10° S
Orbus 7S? 2.7 05:47:32 47° NNW 05:48:04 61° NNE 05:50:44 10° ESE
Cosmos 405 Rocket 4.2 05:46:05 10° SSE 05:49:01 32° E 05:51:59 10° NNE
NOSS 3-4 (A) 4.4 05:49:57 22° NW 05:52:07 28° NNW 05:57:35 10° NE
NOSS 3-4 (C) 4.4 05:50:06 22° NW 05:52:16 28° NNW 05:57:44 10° NE
ATLAS 3B R/B 3.8 05:46:18 16° NW 05:52:19 42° NNE 05:59:33 10° E
Cosmos-2242 2.8 05:49:30 11° NNW 05:53:35 72° W 05:57:46 10° S
Cosmos 1980 Rocket 4.1 05:56:02 12° WSW 05:56:02 12° WSW 05:56:56 10° SW
Cosmos 2278 3.7 05:51:02 19° NW 05:55:10 63° WSW 06:00:43 10° SSE
COSMO-SKYMED 1 3.1 05:53:52 10° SSW 05:57:37 34° W 05:59:09 25° NW
Cosmos 2058 Rocket 3.1 05:56:21 10° NNW 06:00:43 57° W 06:05:03 10° S
Cosmos 1484 Rocket 2.3 05:57:22 10° N 06:00:48 76° WNW 06:04:10 10° SSW
Cosmos 1627 Rocket 4.4 05:57:22 10° SSW 06:03:25 64° WNW 06:09:32 10° N
Meteor 2-2 Rocket 4.2 05:58:21 10° NNW 06:03:58 63° W 06:09:38 10° S
Cosmos 1346 Rocket 4.3 06:07:59 17° NNW 06:07:59 17° NNW 06:09:19 10° NNW
Okean 1 3.0 06:03:39 15° NNW 06:06:30 55° W 06:09:59 10° S
Meteor 2-20 Rocket 4.3 06:01:26 10° NNW 06:07:10 63° W 06:12:47 10° S
Cosmos 1937 Rocket 4.4 06:06:02 21° WNW 06:08:00 27° W 06:12:13 10° SSW
NOAA 12 4.5 06:03:56 10° N 06:08:50 39° WNW 06:13:41 10° SW
Cosmos 220 Rocket 4.4 06:05:09 10° SW 06:08:55 36° WNW 06:12:46 10° N
SL-16 R/B 4.5 06:08:50 10° N 06:10:30 11° NNE 06:12:11 10° NE
ARIANE 5 R/B 3.7 06:07:49 10° NNE 06:12:51 46° E 06:17:52 10° S
Cosmos 2285 Rocket 4.0 06:06:46 10° NNW 06:13:11 84° WSW 06:19:35 10° SSE
SL-08 ROCKET BODY 4.5 06:11:00 10° S 06:16:51 80° E 06:22:43 10° NNE
IRIDIUM 104 4.3 06:13:29 10° S 06:18:42 83° W 06:23:58 10° N
Cosmos 2333 Rocket 2.6 06:15:59 13° NW 06:20:57 48° WSW 06:26:25 10° S
SAR-Lupe-4 4.4 06:19:40 10° NNE 06:23:10 53° ESE 06:26:39 10° S
SMAP 3.2 06:19:28 10° NNE 06:24:09 79° ESE 06:28:48 10° SSW
Cosmos 2360 Rocket 2.3 06:21:58 10° NW 06:27:31 60° WSW 06:33:01 10° SSE
IRIDIUM 114 4.3 06:22:39 10° SSW 06:27:51 70° W 06:33:05 10° N
Helios 1A Rocket 4.3 06:27:38 10° WSW 06:29:19 13° W 06:29:19 13° W
Landsat 7 4.0 06:25:25 10° NNE 06:30:06 74° ESE 06:34:45 10° S
NOSS 3-1 (A) 4.3 06:25:10 12° NW 06:31:36 54° SW 06:40:08 10° SSE
CBERS-1 4.0 06:27:45 10° N 06:32:49 63° WNW 06:37:49 10° SSW
Cosmos 2026 Rocket 4.3 06:27:27 10° SW 06:33:04 39° WNW 06:38:46 10° N
IGS 5A 3.7 06:29:51 10° N 06:33:40 43° WNW 06:37:27 10° SW
Cosmos 1814 Rocket 4.0 06:29:18 10° SSW 06:34:32 84° WNW 06:39:52 10° NNE
BREEZE-M DEB (TANK) 3.3 06:34:37 13° WSW 06:35:57 25° SSW 06:38:05 10° SE
Cosmos 2237 Rocket 3.9 06:31:31 10° NNW 06:36:08 25° NE 06:40:44 10° E
SeaSat 1 4.4 06:35:55 10° NNW 06:36:31 10° NNW 06:37:07 10° NNW
IRIDIUM 103 4.4 06:31:54 10° SSW 06:37:02 59° W 06:42:14 10° N
USA 234 3.5 06:32:03 10° E 06:38:33 66° NNE 06:45:03 10° WNW
SL-4 R/B 1.6 06:36:58 13° WNW 06:39:42 62° SSW 06:42:50 10° ESE
Cosmos 1758 Rocket 3.5 06:36:31 10° SSW 06:40:54 65° WNW 06:45:18 10° N
Cosmos 1733 2.1 06:40:01 10° SW 06:41:42 29° WNW 06:43:24 10° N
Cosmos 1743 2.1 06:38:43 10° SSW 06:41:58 76° W 06:45:14 10° N
IRS-1C 4.4 06:36:44 10° NNE 06:42:05 76° ESE 06:47:24 10° S
Thor Agena Rocket 3.5 06:40:16 10° NNE 06:45:20 69° WNW 06:50:19 10° SSW
BREEZE-M DEB (TANK) 3.3 06:43:00 10° WSW 06:45:49 78° S 06:53:45 10° E
Cosmos 2219 Rocket 2.2 06:40:46 10° NNW 06:46:25 70° WSW 06:52:00 10° SSE
Cosmos 192 4.3 06:41:49 10° NNW 06:46:45 78° WSW 06:51:39 10° SSE
ATLAS 5 CENTAUR R/B 3.2 06:45:58 10° NNW 06:47:20 12° N 06:48:47 10° NNE
Cosmos 2322 Rocket 2.8 06:44:08 10° NW 06:49:21 38° WSW 06:54:31 10° S
S3M 4.0 06:43:50 10° N 06:50:06 85° W 06:56:14 10° S
Cosmos 1553 Rocket 4.4 06:46:38 10° NNW 06:52:36 43° W 06:58:34 10° SSW
USA 229 4.3 06:47:50 10° NW 06:55:03 67° NE 07:03:05 10° ESE
USA 229 DEB 4.3 06:47:55 10° NW 06:55:09 67° NE 07:03:09 10° ESE
Cosmos 2322 4.1 06:49:35 10° NNW 06:55:15 66° ENE 07:00:52 10° SE
SJ-12 3.7 06:53:43 10° N 06:57:30 64° WNW 07:01:16 10° SSW
SKYMED 3 4.4 06:55:01 10° SSE 06:59:02 83° WSW 07:03:03 10° NNW
Resurs 01 Rocket 4.4 06:55:57 10° NE 06:59:18 21° E 07:02:38 10° SE
YAOGAN 1 3.9 06:56:18 10° NNE 07:00:26 45° E 07:04:31 10° S
Cosmos 2221 2.8 06:57:41 10° NNW 07:01:39 45° W 07:05:36 10° SSW
Cosmos 1626 Rocket 4.2 07:01:02 10° SW 07:05:03 33° WNW 07:09:05 10° N
MOS 1 Rocket 3.6 07:00:01 10° N 07:05:24 72° WNW 07:10:42 10° SSW
Cosmos 2151 2.9 07:01:51 10° SSW 07:05:52 57° WNW 07:09:56 10° N
